Albert Lea, MN

10:07 PM CDT on March 26, 2017 (GMT -0500)
Albert Lea Municipal

Weather History for KAEL - February, 2012

Change the Weather History Date:

Saturday, February 25, 2012

  Actual Average Record
Temperature  
Mean Temperature 18 °F -  
Max Temperature 28 °F 29 °F 48 °F (1998)
Min Temperature 8 °F 16 °F -5 °F (2003)
Degree Days  
Heating Degree Days 47    
Moisture  
Dew Point 12 °F    
Average Humidity 78    
Maximum Humidity 92    
Minimum Humidity 64    
Precipitation  
Precipitation 0.00 in - - ()
Sea Level Pressure  
Sea Level Pressure 30.14 in    
Wind  
Wind Speed 9 mph (West)    
Max Wind Speed 14 mph    
Max Gust Speed 23 mph    
Visibility 10 miles    
Events Snow    
Averages and records for this station are not official NWS values.
T = Trace of Precipitation, MM = Missing Value Source: NWS Daily Summary

Daily Weather History Graph

Daily Weather History Graph

Search for Another Location

Airport or City:

Trip Planner

Search our weather history database for the weather conditions in past years. The results will help you decide how hot, cold, wet, or windy it might be!

Date:

Astronomy

Feb. 25, 2012 Rise Set
Actual Time 6:57 AM CST 5:56 PM CST
Civil Twilight 6:28 AM CST 6:25 PM CST
Nautical Twilight 5:55 AM CST 6:58 PM CST
Astronomical Twilight 5:22 AM CST 7:31 PM CST
Moon 8:12 AM CST (2/25) 10:08 PM CST (2/25)
Length of Visible Light 11h 56m
Length of Day
10h 58m
Waxing Crescent, 14% of the Moon is Illuminated
Feb 25
Waxing Crescent
Feb 29
First Quarter
Mar 8
Full
Mar 14
Last Quarter
Mar 22
New

Hourly Weather History & Observations

Time (CST) Temp. Windchill Dew Point Humidity Pressure Visibility Wind Dir Wind Speed Gust Speed Precip Events Conditions
12:09 AM 12.2 °F -1.8 °F 6.8 °F 79% 30.05 in 10.0 mi NW 11.5 mph 21.9 mph N/A   Clear
12:28 AM 12.2 °F -1.8 °F 6.8 °F 79% 30.06 in 10.0 mi NW 11.5 mph 17.3 mph N/A   Clear
12:48 AM 12.2 °F -1.8 °F 8.6 °F 85% 30.06 in 10.0 mi NW 11.5 mph 19.6 mph N/A   Clear
1:09 AM 12.2 °F -0.2 °F 8.6 °F 85% 30.07 in 10.0 mi NW 9.2 mph 17.3 mph N/A   Scattered Clouds
1:28 AM 14.0 °F 2.0 °F 8.6 °F 79% 30.08 in 10.0 mi NW 9.2 mph 17.3 mph N/A   Overcast
1:48 AM 14.0 °F 1.2 °F 8.6 °F 79% 30.08 in 10.0 mi NW 10.4 mph 21.9 mph N/A   Overcast
2:09 AM 14.0 °F 0.5 °F 8.6 °F 79% 30.08 in 10.0 mi NW 11.5 mph 18.4 mph N/A   Overcast
2:28 AM 14.0 °F 2.0 °F 8.6 °F 79% 30.09 in 7.0 mi NW 9.2 mph 18.4 mph N/A Snow Light Snow
2:48 AM 12.2 °F -3.1 °F 8.6 °F 85% 30.09 in 5.0 mi NW 13.8 mph 20.7 mph N/A Snow Light Snow
3:09 AM 12.2 °F 0.7 °F 8.6 °F 85% 30.10 in 5.0 mi NW 8.1 mph 21.9 mph N/A Snow Light Snow
3:28 AM 12.2 °F -2.5 °F 8.6 °F 85% 30.10 in 5.0 mi NW 12.7 mph 19.6 mph N/A Snow Light Snow
3:48 AM 12.2 °F -2.5 °F 8.6 °F 85% 30.11 in 7.0 mi NNW 12.7 mph 19.6 mph N/A Snow Light Snow
4:09 AM 12.2 °F -3.1 °F 6.8 °F 79% 30.12 in 10.0 mi NW 13.8 mph 20.7 mph N/A   Overcast
4:28 AM 10.4 °F -4.8 °F 6.8 °F 85% 30.13 in 7.0 mi NW 12.7 mph 23.0 mph N/A Snow Light Snow
5:08 AM 10.4 °F -3.3 °F 6.8 °F 85% 30.13 in 10.0 mi NW 10.4 mph 17.3 mph N/A Snow Light Snow
5:49 AM 10.4 °F 0.8 °F 6.8 °F 85% 30.15 in 10.0 mi NW 5.8 mph - N/A   Clear
6:08 AM 10.4 °F 0.8 °F 6.8 °F 85% 30.16 in 10.0 mi WNW 5.8 mph - N/A   Scattered Clouds
6:28 AM 8.6 °F -2.6 °F 6.8 °F 92% 30.16 in 10.0 mi NW 6.9 mph - N/A   Scattered Clouds
6:49 AM 8.6 °F -1.3 °F 6.8 °F 92% 30.17 in 10.0 mi WNW 5.8 mph - N/A   Clear
7:08 AM 8.6 °F 0.1 °F 6.8 °F 92% 30.17 in 10.0 mi WNW 4.6 mph - N/A   Clear
7:28 AM 8.6 °F -1.3 °F 6.8 °F 92% 30.18 in 10.0 mi WNW 5.8 mph - N/A   Clear
7:49 AM 10.4 °F -2.4 °F 6.8 °F 85% 30.19 in 10.0 mi WNW 9.2 mph - N/A   Clear
8:08 AM 10.4 °F -0.4 °F 8.6 °F 92% 30.20 in 10.0 mi WNW 6.9 mph - N/A   Scattered Clouds
8:28 AM 10.4 °F -0.4 °F 8.6 °F 92% 30.20 in 10.0 mi WNW 6.9 mph - N/A   Scattered Clouds
8:49 AM 12.2 °F 2.9 °F 8.6 °F 85% 30.20 in 10.0 mi WNW 5.8 mph - N/A   Scattered Clouds
9:08 AM 12.2 °F 4.3 °F 8.6 °F 85% 30.20 in 10.0 mi NW 4.6 mph - N/A   Mostly Cloudy
9:28 AM 14.0 °F 3.9 °F 8.6 °F 79% 30.21 in 10.0 mi WNW 6.9 mph - N/A   Scattered Clouds
9:49 AM 15.8 °F 7.2 °F 10.4 °F 79% 30.19 in 10.0 mi NW 5.8 mph - N/A   Clear
10:08 AM 15.8 °F 10.2 °F 10.4 °F 79% 30.20 in 10.0 mi NNW 3.5 mph - N/A   Clear
10:28 AM 17.6 °F 9.3 °F 10.4 °F 73% 30.21 in 10.0 mi WNW 5.8 mph - N/A   Clear
10:49 AM 17.6 °F 10.7 °F 10.4 °F 73% 30.20 in 10.0 mi West 4.6 mph - N/A   Clear
11:28 AM 19.4 °F 11.5 °F 12.2 °F 74% 30.20 in 10.0 mi West 5.8 mph - N/A   Clear
11:49 AM 21.2 °F 14.9 °F 14.0 °F 74% 30.20 in 10.0 mi WSW 4.6 mph - N/A   Clear
12:08 PM 21.2 °F 12.6 °F 14.0 °F 74% 30.20 in 10.0 mi SW 6.9 mph - N/A   Clear
12:28 PM 21.2 °F - 15.8 °F 80% 30.19 in 10.0 mi Calm Calm - N/A   Clear
12:49 PM 24.8 °F 20.5 °F 15.8 °F 69% 30.18 in 10.0 mi West 3.5 mph - N/A   Clear
1:08 PM 24.8 °F 17.9 °F 17.6 °F 74% 30.17 in 10.0 mi West 5.8 mph - N/A   Clear
1:28 PM 24.8 °F 19.1 °F 17.6 °F 74% 30.17 in 10.0 mi WSW 4.6 mph - N/A   Clear
1:49 PM 26.6 °F - 15.8 °F 64% 30.16 in 10.0 mi Calm Calm - N/A   Clear
2:08 PM 26.6 °F 21.2 °F 17.6 °F 69% 30.15 in 10.0 mi SW 4.6 mph - N/A   Clear
2:28 PM 26.6 °F 20.0 °F 17.6 °F 69% 30.14 in 10.0 mi SW 5.8 mph - N/A   Clear
2:49 PM 26.6 °F 21.2 °F 17.6 °F 69% 30.13 in 10.0 mi SSW 4.6 mph - N/A   Clear
3:08 PM 26.6 °F 21.2 °F 17.6 °F 69% 30.12 in 10.0 mi SW 4.6 mph - N/A   Clear
3:28 PM 28.4 °F 23.3 °F 17.6 °F 64% 30.12 in 10.0 mi SW 4.6 mph - N/A   Clear
3:48 PM 28.4 °F 22.2 °F 17.6 °F 64% 30.11 in 10.0 mi WSW 5.8 mph - N/A   Clear
4:08 PM 28.4 °F 21.2 °F 17.6 °F 64% 30.11 in 10.0 mi SSE 6.9 mph - N/A   Clear
4:28 PM 28.4 °F 20.4 °F 17.6 °F 64% 30.11 in 10.0 mi South 8.1 mph - N/A   Clear
4:48 PM 28.4 °F 23.3 °F 17.6 °F 64% 30.10 in 10.0 mi South 4.6 mph - N/A   Scattered Clouds
5:08 PM 26.6 °F 19.1 °F 17.6 °F 69% 30.09 in 10.0 mi South 6.9 mph - N/A   Scattered Clouds
5:29 PM 26.6 °F 19.1 °F 17.6 °F 69% 30.09 in 10.0 mi South 6.9 mph - N/A   Clear
5:48 PM 26.6 °F 19.1 °F 19.4 °F 74% 30.09 in 10.0 mi SSE 6.9 mph - N/A   Clear
6:08 PM 24.8 °F 16.9 °F 19.4 °F 80% 30.09 in 10.0 mi SSE 6.9 mph - N/A   Clear
6:29 PM 24.8 °F 14.6 °F 19.4 °F 80% 30.09 in 10.0 mi South 10.4 mph - N/A   Clear
6:48 PM 24.8 °F 14.6 °F 19.4 °F 80% 30.09 in 10.0 mi SSE 10.4 mph - N/A   Clear
7:29 PM 24.8 °F 13.4 °F 19.4 °F 80% 30.08 in 10.0 mi SSE 12.7 mph - N/A   Clear
7:48 PM 23.0 °F 11.1 °F 19.4 °F 86% 30.07 in 10.0 mi SE 12.7 mph - N/A   Clear
8:08 PM 23.0 °F 11.7 °F 19.4 °F 86% 30.08 in 10.0 mi SSE 11.5 mph - N/A   Clear
8:28 PM 21.2 °F 10.1 °F 19.4 °F 93% 30.08 in 10.0 mi SSE 10.4 mph - N/A   Clear
8:48 PM 21.2 °F 10.9 °F 19.4 °F 93% 30.09 in 10.0 mi SSE 9.2 mph 16.1 mph N/A   Clear
9:08 PM 21.2 °F 7.3 °F 17.6 °F 86% 30.10 in 10.0 mi SSE 16.1 mph 19.6 mph N/A   Clear
9:28 PM 21.2 °F 7.3 °F 15.8 °F 80% 30.10 in 10.0 mi SSE 16.1 mph - N/A   Clear
9:48 PM 19.4 °F 5.0 °F 15.8 °F 86% 30.09 in 10.0 mi SSE 16.1 mph - N/A   Clear
10:08 PM 19.4 °F 5.0 °F 15.8 °F 86% 30.07 in 10.0 mi SE 16.1 mph - N/A   Clear
10:29 PM 19.4 °F 5.5 °F 15.8 °F 86% 30.05 in 10.0 mi SE 15.0 mph 21.9 mph N/A   Clear
10:48 PM 19.4 °F 6.0 °F 15.8 °F 86% 30.04 in 10.0 mi SE 13.8 mph - N/A   Clear
11:08 PM 19.4 °F 5.0 °F 15.8 °F 86% 30.03 in 10.0 mi SE 16.1 mph 19.6 mph N/A   Scattered Clouds
11:28 PM 19.4 °F 6.0 °F 15.8 °F 86% 30.01 in 10.0 mi SE 13.8 mph - N/A   Clear
11:48 PM 19.4 °F 5.0 °F 15.8 °F 86% 30.00 in 10.0 mi SE 16.1 mph 20.7 mph N/A   Scattered Clouds